Regional Weather Roundup
Issued by NWS

Home | Current Version | Previous Version | Graphics & Text | Print | Product List | Glossary On
Versions: 1 2 3 4 5 6 7 8 9 10 11 12 13 14 15 16 17 18 19 20 21 22 23 24 25 26 27 28 29 30 31 32 33 34 35 36 37 38 39 40 41 42 43 44 45 46 47 48 49 50
000
ASUS43 KMKX 300621
RWRWI

WISCONSIN REGIONAL WEATHER ROUNDUP
NATIONAL WEATHER SERVICE MILWAUKEE/SULLIVAN WI
100 AM CDT TUE AUG 30 2016

NOTE: "FAIR" INDICATES FEW OR NO CLOUDS BELOW 12,000 FEET WITH NO
SIGNIFICANT WEATHER AND/OR OBSTRUCTIONS TO VISIBILITY.

WIZ001-002-006>008-014>016-023>028-300700-
NORTHWEST WISCONSIN

CITY           SKY/WX    TMP DP  RH WIND       PRES   REMARKS
SUPERIOR ARPT  FAIR      66  65  97 S9        30.14R
6HR MIN TEMP:  65; 6HR MAX TEMP:  80;

ASHLAND        FAIR      65  63  93 W3        30.15R
6HR MIN TEMP:  65; 6HR MAX TEMP:  80; 6HR PCP:  0.31;

HAYWARD        FAIR      66  63  90 SW5       30.17R
6HR MIN TEMP:  66; 6HR MAX TEMP:  77; 6HR PCP:  0.23;

SIREN          FAIR      66  64  95 S3        30.17S
6HR MIN TEMP:  66; 6HR MAX TEMP:  79; 6HR PCP:  0.22;

CUMBERLAND     LGT RAIN  63  61  94 N12       30.20F
RICE LAKE      LGT RAIN  64  63  96 S14       30.20F
6HR MIN TEMP:  64; 6HR MAX TEMP:  78; 6HR PCP:  0.34;

CHETEK         NOT AVBL
LADYSMITH      RAIN      68  62  82 NW6       30.22F
6HR MIN TEMP:  67; 6HR MAX TEMP:  78; 6HR PCP:  0.14;

EAU CLAIRE     LGT RAIN  67  64  90 CALM      30.20R
6HR MIN TEMP:  66; 6HR MAX TEMP:  81; 6HR PCP:  0.06;

MENOMONIE      FAIR      68  65  92 CALM      30.22R
6HR MIN TEMP:  68; 6HR MAX TEMP:  81; 6HR PCP:  0.02;

NEW RICHMOND   RAIN      67  67  98 SE7       30.23R
6HR MIN TEMP:  67; 6HR MAX TEMP:  79; 6HR PCP:  0.13;

OSCEOLA        RAIN      68  68 100 S8        30.21F
6HR MIN TEMP:  67; 6HR MAX TEMP:  81; 6HR PCP:  1.09;

$$

WIZ003>005-009-010-017-018-300700-
NORTH CENTRAL WISCONSIN

CITY           SKY/WX    TMP DP  RH WIND       PRES   REMARKS
MANITOWISH WTR NOT AVBL
ARBOR VITAE    LGT RAIN  72  70  94 CALM      30.18F
6HR MIN TEMP:  72; 6HR MAX TEMP:  77;

WOODRUFF       LGT RAIN  72  70  94 CALM      30.18F
6HR MIN TEMP:  72; 6HR MAX TEMP:  77;

RHINELANDER    MOCLDY    72  72 100 W7        30.18F
6HR MIN TEMP:  70; 6HR MAX TEMP:  78;

EAGLE RIVER    LGT RAIN  70  70 100 SW8       30.17S
6HR MIN TEMP:  64; 6HR MAX TEMP:  70;

LAND O LAKES   MOCLDY    70  69  98 W3        30.16F
6HR MIN TEMP:  68; 6HR MAX TEMP:  76; 6HR PCP:  0.02;

PHILLIPS       TSTM      66  65  95 W6        30.19S
6HR MIN TEMP:  68; 6HR MAX TEMP:  76; 6HR PCP:  0.09;

TOMAHAWK       FAIR      70  68  95 CALM      30.18F
6HR MIN TEMP:  68; 6HR MAX TEMP:  74;

MEDFORD        MOCLDY    70  70 100 W12       30.19S
6HR MIN TEMP:  70; 6HR MAX TEMP:  76;

MERRILL        MOCLDY    72  71  99 SW3       30.18F
6HR MIN TEMP:  71; 6HR MAX TEMP:  79;

$$

WIZ029-030-035-036-043>047-300700-
CENTRAL WISCONSIN

CITY           SKY/WX    TMP DP  RH WIND       PRES   REMARKS
WAUSAU         FAIR      71  69  93 W3        30.16F
6HR MIN TEMP:  71; 6HR MAX TEMP:  79;

MOSINEE        FAIR      68  68 100 SW6       30.19S
MARSHFIELD     FAIR      71  68  90 W5        30.18S FOG
6HR MIN TEMP:  69; 6HR MAX TEMP:  78;

STEVENS POINT  FAIR      68  68  99 CALM      30.18S
6HR MIN TEMP:  68; 6HR MAX TEMP:  77;

WAUPACA        FAIR      68  67  98 CALM      30.18R FOG
6HR MIN TEMP:  68; 6HR MAX TEMP:  80;

WAUTOMA        FAIR      66  66 100 CALM      30.18S
6HR MIN TEMP:  65; 6HR MAX TEMP:  78;

WISC RAPIDS    FAIR      69  69 100 W5        30.19S
6HR MIN TEMP:  67; 6HR MAX TEMP:  77;

CAMP DOUGLAS   FOG       64  64 100 N1        30.19R VSB 3/4
$$

WIZ011>013-019>022-031-037>040-048>050-300700-
NORTHEAST WISCONSIN

CITY           SKY/WX    TMP DP  RH WIND       PRES   REMARKS
ANTIGO         FAIR      69  69 100 W6        30.18F
6HR MIN TEMP:  68; 6HR MAX TEMP:  76;

SHAWANO        FAIR      73  69  88 CALM      30.15F
6HR MIN TEMP:  73; 6HR MAX TEMP:  82;

OCONTO         NOT AVBL
STURGEON BAY   FAIR      72  69  90 SW7       30.15F
6HR MIN TEMP:  69; 6HR MAX TEMP:  74;

GREEN BAY      FAIR      69  69 100 S3        30.15F
6HR MIN TEMP:  67; 6HR MAX TEMP:  78;

MANITOWOC      FAIR      65  63  93 S3        30.17S
6HR MIN TEMP:  64; 6HR MAX TEMP:  74;

APPLETON       FAIR      68  68 100 SW5       30.16S
CLINTONVILLE   FAIR      70  68  94 SW3       30.14F
OSHKOSH        FAIR      67  65  93 SW5       30.17S
6HR MIN TEMP:  67; 6HR MAX TEMP:  78;

$$

WIZ032>034-041-042-053>061-300700-
SOUTHWEST WISCONSIN

CITY           SKY/WX    TMP DP  RH WIND       PRES   REMARKS
LA CROSSE      FAIR      71  71 100 E3        30.18R
6HR MIN TEMP:  71; 6HR MAX TEMP:  81;

SPARTA         CLOUDY    63  63 100 CALM      30.19R FOG
6HR MIN TEMP:  62; 6HR MAX TEMP:  78;

VIROQUA        FAIR      69  69 100 CALM      30.21R
6HR MIN TEMP:  68; 6HR MAX TEMP:  76;

BOSCOBEL       FOG       72  71  97 CALM      30.18S VSB 1/4
6HR MIN TEMP:  71; 6HR MAX TEMP:  80;

PRAIRIE DU CHI FOG       72  70  95 CALM      30.17S VSB 1/2
6HR MIN TEMP:  72; 6HR MAX TEMP:  78;

PLATTEVILLE    MOCLDY    71  71 100 SE6       30.20S
6HR MIN TEMP:  70; 6HR MAX TEMP:  78;

$$

WIZ056-057-062-063-064-067-068-300700-
SOUTH CENTRAL WISCONSIN

CITY           SKY/WX    TMP DP  RH WIND       PRES   REMARKS
REEDSBURG      NOT AVBL
BARABOO/DELLS  FAIR      69  67  94 CALM      30.19R FOG
6HR MIN TEMP:  68; 6HR MAX TEMP:  77;

LONE ROCK      FOG       71  70  96 CALM      30.18S VSB 3/4
6HR MIN TEMP:  69; 6HR MAX TEMP:  78;

MINERAL POINT  FAIR      72  72 100 CALM      30.20S
MADISON        FAIR      72  68  87 MISG      30.18S
6HR MIN TEMP:  70; 6HR MAX TEMP:  80;

MIDDLETON      FAIR      72  70  95 CALM      30.19F
6HR MIN TEMP:  70; 6HR MAX TEMP:  79;

WATERTOWN      FAIR      69  69 100 CALM      30.20S
6HR MIN TEMP:  69; 6HR MAX TEMP:  78;

MONROE         FAIR      70  68  94 CALM      30.21S
JANESVILLE     FAIR      70  68  94 CALM      30.19S
$$

WIZ051-052-058>065-066-070>072-300700-
SOUTHEAST WISCONSIN

CITY           SKY/WX    TMP DP  RH WIND       PRES   REMARKS
MILWAUKEE      MOCLDY    74  69  85 SW6       30.19S
6HR MIN TEMP:  73; 6HR MAX TEMP:  78;

WAUKESHA       FAIR      68  64  88 CALM      30.21R
MILWAUKEE/TIMM FAIR      70  64  83 CALM      30.20S
RACINE         FAIR      71  69  93 CALM      30.20F
6HR MIN TEMP:  70; 6HR MAX TEMP:  77;

BURLINGTON     FAIR      65  64  98 CALM      30.19F
6HR MIN TEMP:  63; 6HR MAX TEMP:  73;

KENOSHA        FAIR      70  68  93 CALM      30.19S FOG
6HR MIN TEMP:  68; 6HR MAX TEMP:  77;

FOND DU LAC    FAIR      67  66  97 S6        30.19R
6HR MIN TEMP:  65; 6HR MAX TEMP:  76; 6HR PCP: TRACE;

SHEBOYGAN      FAIR      65  63  93 SW3       30.19R
6HR MIN TEMP:  64; 6HR MAX TEMP:  73;

WEST BEND      FAIR      68  64  88 CALM      30.20R
JUNEAU         FAIR      70  68  94 S6        30.21R
6HR MIN TEMP:  68; 6HR MAX TEMP:  76;

$$

LSZ147-162-300700-
LAKE SUPERIOR

STATION/POSITION TIME  TEMP    WIND        PRES    WAVE
                       AIR SEA DIR/SP/G            HT/PER
                 (UTC) (F)     (DEG/KT/KT) (MB)    (FT/S)
W MID LAKE BUOY  0550   69 67  250/ 10/ 10 1018.2F   2/ 3
DEVILS ISLAND    0600   68     220/ 11/ 13 1019.4R
PORT WING        0500   67     190/  4/  5 1019.3F
SAXON HARBOR     0520   69     280/  1/ 12 1019.6R
$$

LMZ867-665-643>646-300700-
LAKE MICHIGAN

STATION/POSITION TIME  TEMP    WIND        PRES    WAVE
                       AIR SEA DIR/SP/G            HT/PER
                 (UTC) (F)     (DEG/KT/KT) (MB)    (FT/S)
CHAMBERS ISLAND  0500   73     190/  4/ 13 1020.3R
S GREEN BAY BUOY 0400   75 73  200/ 10/ 14 1020.1
N MID LAKE BUOY  0550   72 71  220/ 14/ 17 1019.2F   2/ 4
NORTHPORT PIER   0500   72     200/  2C1F1C2F2C3F3C4F4C5F5C6F6C7F7C8M1C9M2Ca!



USA.gov is the U.S. government's official web portal to all federal, state and local government web resources and services.